TimeCDT,TemperatureF,Dew PointF,Humidity,Sea Level PressureIn,VisibilityMPH,Wind Direction,Wind SpeedMPH,Gust SpeedMPH,PrecipitationIn,Events,Conditions,WindDirDegrees,DateUTC
12:13 AM,41.0,37.4,87,29.73,2.0,Calm,Calm,-,N/A,,Clear,0,2013-04-29 05:13:00
12:34 AM,37.4,35.6,93,29.73,1.5,Calm,Calm,-,N/A,,Mist,0,2013-04-29 05:34:00
12:54 AM,39.2,37.4,93,29.73,1.5,Calm,Calm,-,N/A,,Mist,0,2013-04-29 05:54:00
1:14 AM,37.4,35.6,93,29.73,7.0,WSW,3.5,-,N/A,,Clear,250,2013-04-29 06:14:00
1:33 AM,37.4,35.6,93,29.73,4.0,WSW,3.5,-,N/A,,Clear,240,2013-04-29 06:33:00
1:53 AM,37.4,33.8,87,29.74,2.5,Calm,Calm,-,N/A,,Clear,0,2013-04-29 06:53:00
2:14 AM,33.8,30.2,87,29.74,5.0,Calm,Calm,-,N/A,,Clear,0,2013-04-29 07:14:00
2:34 AM,39.2,35.6,87,29.74,7.0,West,4.6,-,N/A,,Clear,270,2013-04-29 07:34:00
2:54 AM,37.4,33.8,87,29.75,10.0,NW,6.9,-,N/A,,Clear,310,2013-04-29 07:54:00
3:14 AM,41.0,37.4,87,29.75,10.0,NW,8.1,-,N/A,,Clear,310,2013-04-29 08:14:00
3:34 AM,41.0,35.6,81,29.75,10.0,NW,9.2,-,N/A,,Clear,320,2013-04-29 08:34:00
3:53 AM,41.0,35.6,81,29.76,10.0,NW,9.2,-,N/A,,Clear,320,2013-04-29 08:53:00
4:13 AM,39.2,33.8,81,29.76,10.0,NW,8.1,-,N/A,,Clear,320,2013-04-29 09:13:00
4:33 AM,39.2,32.0,75,29.77,10.0,NNW,8.1,-,N/A,,Clear,330,2013-04-29 09:33:00
4:54 AM,39.2,32.0,75,29.77,10.0,NNW,9.2,-,N/A,,Clear,330,2013-04-29 09:54:00
5:13 AM,37.4,30.2,75,29.77,10.0,NNW,10.4,-,N/A,,Clear,330,2013-04-29 10:13:00
5:33 AM,37.4,30.2,75,29.78,10.0,NNW,10.4,-,N/A,,Clear,340,2013-04-29 10:33:00
5:54 AM,37.4,30.2,75,29.79,10.0,North,9.2,-,N/A,,Clear,350,2013-04-29 10:54:00
6:13 AM,37.4,30.2,75,29.79,10.0,NNW,11.5,-,N/A,,Clear,330,2013-04-29 11:13:00
6:33 AM,39.2,30.2,70,29.79,10.0,North,10.4,-,N/A,,Clear,350,2013-04-29 11:33:00
6:54 AM,39.2,30.2,70,29.80,10.0,NNW,10.4,-,N/A,,Clear,340,2013-04-29 11:54:00
7:14 AM,41.0,28.4,61,29.80,10.0,NNW,9.2,-,N/A,,Clear,330,2013-04-29 12:14:00
7:33 AM,42.8,28.4,57,29.80,10.0,NNW,10.4,-,N/A,,Clear,340,2013-04-29 12:33:00
7:53 AM,42.8,28.4,57,29.80,10.0,NNW,10.4,-,N/A,,Clear,340,2013-04-29 12:53:00
8:14 AM,42.8,28.4,57,29.80,10.0,NNW,8.1,-,N/A,,Clear,340,2013-04-29 13:14:00
8:33 AM,44.6,28.4,53,29.80,10.0,NNW,8.1,-,N/A,,Clear,340,2013-04-29 13:33:00
8:53 AM,46.4,28.4,50,29.80,10.0,North,8.1,-,N/A,,Clear,350,2013-04-29 13:53:00
9:13 AM,48.2,26.6,43,29.79,10.0,North,9.2,-,N/A,,Clear,350,2013-04-29 14:13:00
9:34 AM,50.0,26.6,40,29.79,10.0,NNW,8.1,-,N/A,,Clear,340,2013-04-29 14:34:00
9:53 AM,51.8,26.6,38,29.79,10.0,NNW,4.6,-,N/A,,Clear,340,2013-04-29 14:53:00
10:14 AM,53.6,26.6,35,29.79,10.0,NNE,4.6,-,N/A,,Clear,20,2013-04-29 15:14:00
10:34 AM,55.4,24.8,31,29.79,10.0,Calm,Calm,-,N/A,,Clear,0,2013-04-29 15:34:00
10:53 AM,55.4,24.8,31,29.79,10.0,Calm,Calm,-,N/A,,Clear,0,2013-04-29 15:53:00
11:14 AM,55.4,28.4,36,29.80,10.0,SSE,8.1,-,N/A,,Clear,160,2013-04-29 16:14:00
11:34 AM,55.4,28.4,36,29.80,10.0,SSE,5.8,-,N/A,,Clear,150,2013-04-29 16:34:00
11:53 AM,53.6,28.4,38,29.80,10.0,SE,8.1,-,N/A,,Clear,130,2013-04-29 16:53:00
12:13 PM,51.8,28.4,41,29.79,10.0,ESE,6.9,-,N/A,,Clear,120,2013-04-29 17:13:00
12:34 PM,51.8,30.2,44,29.78,10.0,SE,9.2,-,N/A,,Clear,140,2013-04-29 17:34:00
12:54 PM,51.8,30.2,44,29.78,10.0,SE,8.1,-,N/A,,Clear,140,2013-04-29 17:54:00
1:13 PM,51.8,30.2,44,29.78,10.0,ESE,8.1,-,N/A,,Clear,120,2013-04-29 18:13:00
1:34 PM,51.8,30.2,44,29.78,10.0,ESE,9.2,16.1,N/A,,Clear,120,2013-04-29 18:34:00
1:53 PM,51.8,30.2,44,29.79,10.0,SE,5.8,-,N/A,,Clear,140,2013-04-29 18:53:00
2:14 PM,51.8,30.2,44,29.78,10.0,ESE,4.6,-,N/A,,Clear,120,2013-04-29 19:14:00
2:33 PM,51.8,32.0,47,29.77,10.0,SE,5.8,-,N/A,,Clear,140,2013-04-29 19:33:00
2:53 PM,51.8,32.0,47,29.77,10.0,SE,4.6,-,N/A,,Clear,140,2013-04-29 19:53:00
3:14 PM,53.6,32.0,44,29.77,10.0,SSE,4.6,-,N/A,,Clear,160,2013-04-29 20:14:00
3:33 PM,53.6,30.2,41,29.76,10.0,SE,8.1,-,N/A,,Clear,140,2013-04-29 20:33:00
3:53 PM,53.6,30.2,41,29.75,10.0,SSE,5.8,-,N/A,,Clear,150,2013-04-29 20:53:00
4:14 PM,53.6,30.2,41,29.74,10.0,East,6.9,-,N/A,,Clear,100,2013-04-29 21:14:00
4:33 PM,53.6,32.0,44,29.73,10.0,SE,4.6,-,N/A,,Clear,140,2013-04-29 21:33:00
4:53 PM,51.8,32.0,47,29.73,10.0,SSE,5.8,-,N/A,,Clear,150,2013-04-29 21:53:00
5:14 PM,51.8,33.8,50,29.73,10.0,Calm,Calm,-,N/A,,Clear,0,2013-04-29 22:14:00
5:33 PM,51.8,33.8,50,29.73,10.0,SSE,4.6,-,N/A,,Clear,160,2013-04-29 22:33:00
5:54 PM,51.8,33.8,50,29.72,10.0,ESE,6.9,-,N/A,,Clear,110,2013-04-29 22:54:00
6:14 PM,51.8,35.6,54,29.72,10.0,East,6.9,-,N/A,,Clear,90,2013-04-29 23:14:00
6:33 PM,50.0,35.6,58,29.71,10.0,Calm,Calm,-,N/A,,Clear,0,2013-04-29 23:33:00
6:53 PM,50.0,35.6,58,29.71,10.0,Calm,Calm,-,N/A,,Clear,0,2013-04-29 23:53:00
7:13 PM,48.2,35.6,62,29.71,10.0,Calm,Calm,-,N/A,,Clear,0,2013-04-30 00:13:00
7:34 PM,48.2,35.6,62,29.71,10.0,ENE,4.6,-,N/A,,Clear,60,2013-04-30 00:34:00
7:53 PM,46.4,35.6,66,29.72,10.0,ENE,4.6,-,N/A,,Clear,60,2013-04-30 00:53:00
8:13 PM,46.4,35.6,66,29.72,10.0,ENE,4.6,-,N/A,,Clear,70,2013-04-30 01:13:00
8:34 PM,44.6,35.6,71,29.73,10.0,ENE,5.8,-,N/A,,Clear,60,2013-04-30 01:34:00
8:53 PM,42.8,35.6,76,29.72,10.0,NE,6.9,-,N/A,,Clear,50,2013-04-30 01:53:00
9:13 PM,42.8,35.6,76,29.72,10.0,NE,5.8,-,N/A,,Clear,50,2013-04-30 02:13:00
9:33 PM,42.8,35.6,76,29.72,10.0,NE,5.8,-,N/A,,Clear,40,2013-04-30 02:33:00
9:53 PM,42.8,35.6,76,29.72,10.0,NE,5.8,-,N/A,,Clear,40,2013-04-30 02:53:00
10:34 PM,42.8,37.4,81,29.70,10.0,NE,8.1,-,N/A,,Clear,50,2013-04-30 03:34:00
10:53 PM,42.8,37.4,81,29.70,10.0,ENE,6.9,-,N/A,,Clear,60,2013-04-30 03:53:00
11:13 PM,42.8,37.4,81,29.70,10.0,ENE,6.9,-,N/A,,Clear,60,2013-04-30 04:13:00
11:34 PM,42.8,37.4,81,29.69,10.0,NE,5.8,-,N/A,,Clear,50,2013-04-30 04:34:00
11:53 PM,42.8,37.4,81,29.69,10.0,NE,4.6,-,N/A,,Clear,40,2013-04-30 04:53:00